Regional Weather Roundup
Issued by NWS

Home | Current Version | Previous Version | Text Only | Print | Product List | Glossary Off
Versions: 1 2 3 4 5 6 7 8 9 10 11 12 13 14 15 16 17 18 19 20 21 22 23 24 25 26 27 28 29 30 31 32 33 34 35 36 37 38 39 40 41 42 43 44 45 46 47 48 49 50

000
ASUS43 KBIS 280410
RWRND

NORTH DAKOTA REGIONAL WEATHER ROUNDUP
NATIONAL WEATHER SERVICE BISMARCK ND
1100 PM CDT FRI MAY 27 2016

NOTE: "FAIR" INDICATES FEW OR NO CLOUDS BELOW 12,000 FEET WITH NO
SIGNIFICANT WEATHER AND/OR OBSTRUCTIONS TO VISIBILITY.


NDZ001>003-009>011-017-280500-
NORTHWEST NORTH DAKOTA

CITY           SKY/WX    TMP DP  RH WIND       PRES   REMARKS
WILLISTON      PTCLDY    58  53  84 NE7       29.86R
MINOT          CLOUDY    59  55  87 N6        29.87R
MINOT AFB      CLOUDY    58  54  86 NE9       29.86R
$$

NDZ018>021-031>035-040>046-280500-
SOUTHWEST NORTH DAKOTA

CITY           SKY/WX    TMP DP  RH WIND       PRES   REMARKS
BISMARCK       MOCLDY    60  51  72 NE6       29.82R
DICKINSON      CLEAR     52  44  74 E5        29.84R
GARRISON         N/A     58  52  80 NE5       29.84R
HETTINGER ARPT CLEAR     44  41  89 CALM      29.85R
$$

NDZ004>008-012>016-024-026-027-054-280500-
NORTHEAST NORTH DAKOTA

CITY           SKY/WX    TMP DP  RH WIND       PRES   REMARKS
GRAND FORKS    CLOUDY    64  59  83 E9        29.79R
GRND FRKS AFB  CLOUDY    65  61  87 E5        29.79R
DEVILS LAKE    MOCLDY    60  57  89 NE12      29.84R
$$

NDZ022-023-025-028>030-036>039-047>053-280500-
SOUTHEAST NORTH DAKOTA

CITY           SKY/WX    TMP DP  RH WIND       PRES   REMARKS
FARGO          CLOUDY    63  59  87 NE7       29.78S
JAMESTOWN      CLOUDY    62  56  80 CALM      29.79R
$$





USA.gov is the U.S. government's official web portal to all federal, state and local government web resources and services.